McAlester, OK

8:03 PM CDT on August 22, 2019 (GMT -0500)
McAlester Regional

Weather History for KMLC - July, 2019

Change the Weather History Date:

Monday, July 22, 2019

  Actual Average Record
Temperature  
Mean Temperature 81 °F -  
Max Temperature 87 °F 92 °F 107 °F (1963)
Min Temperature 73 °F 69 °F 51 °F (1970)
Cooling Degree Days 16    
Growing Degree Days 31 (Base 50)    
Moisture  
Dew Point 68 °F    
Average Humidity 66    
Maximum Humidity 79    
Minimum Humidity 44    
Precipitation  
Precipitation 0.00 in - - ()
Sea Level Pressure  
Sea Level Pressure 30.02 in    
Wind  
Wind Speed 9 mph (North)    
Max Wind Speed 18 mph    
Max Gust Speed 26 mph    
Visibility 10 miles    
Events      
Averages and records for this station are not official NWS values.
T = Trace of Precipitation, MM = Missing Value Source: NWS Daily Summary

Daily Weather History Graph

Daily Weather History Graph

Search for Another Location

Airport or City:

Astronomy

Jul. 22, 2019 Rise Set
Actual Time 6:25 AM CDT 8:33 PM CDT
Civil Twilight 5:56 AM CDT 9:01 PM CDT
Nautical Twilight 5:22 AM CDT 9:36 PM CDT
Astronomical Twilight 4:44 AM CDT 10:13 PM CDT
Moon No Moon Rise 11:32 AM CDT (7/22)
Length of Visible Light 15h 04m
Length of Day
14h 08m
Waning Gibbous, 72% of the Moon is Illuminated
Jul 22
Waning Gibbous
Jul 24
Last Quarter
Jul 31
New
Aug 7
First Quarter
Aug 15
Full

Hourly Weather History & Observations

Time (CDT) Temp. Heat Index Dew Point Humidity Pressure Visibility Wind Dir Wind Speed Gust Speed Precip Events Conditions
12:53 AM 82.0 °F 84.5 °F 66.9 °F 60% 29.91 in 10.0 mi South 4.6 mph - N/A   Clear
1:53 AM 80.1 °F 82.7 °F 68.0 °F 67% 29.92 in 10.0 mi South 3.5 mph - N/A   Mostly Cloudy
2:53 AM 81.0 °F 83.8 °F 68.0 °F 65% 29.95 in 10.0 mi North 6.9 mph - N/A   Partly Cloudy
3:53 AM 80.1 °F 82.9 °F 69.1 °F 69% 29.93 in 10.0 mi Variable 4.6 mph - N/A   Clear
4:53 AM 78.1 °F - 68.0 °F 71% 29.94 in 10.0 mi Variable 3.5 mph - N/A   Clear
5:53 AM 75.9 °F - 68.0 °F 76% 29.96 in 10.0 mi East 4.6 mph - N/A   Mostly Cloudy
6:53 AM 75.9 °F - 69.1 °F 79% 29.96 in 10.0 mi NNE 3.5 mph - N/A   Mostly Cloudy
7:53 AM 77.0 °F - 69.1 °F 76% 29.98 in 10.0 mi NNE 3.5 mph - N/A   Clear
8:53 AM 79.0 °F - 70.0 °F 74% 30.01 in 10.0 mi North 13.8 mph - N/A   Mostly Cloudy
9:25 AM 77.0 °F - 70.0 °F 79% 30.05 in 10.0 mi North 9.2 mph - N/A   Overcast
9:34 AM 78.1 °F - 70.0 °F 76% 30.05 in 10.0 mi North 9.2 mph - N/A   Overcast
9:53 AM 79.0 °F - 71.1 °F 77% 30.01 in 10.0 mi North 10.4 mph - N/A   Overcast
10:18 AM 80.1 °F 83.6 °F 71.1 °F 74% 30.05 in 10.0 mi North 15.0 mph - N/A   Overcast
10:35 AM 80.1 °F 83.6 °F 71.1 °F 74% 30.06 in 10.0 mi North 16.1 mph - N/A   Overcast
10:53 AM 81.0 °F 84.9 °F 71.1 °F 72% 30.03 in 10.0 mi North 18.4 mph - 0.00 in   Mostly Cloudy
11:30 AM 82.0 °F 85.9 °F 70.0 °F 67% 30.07 in 10.0 mi North 16.1 mph 20.7 mph N/A   Mostly Cloudy
11:53 AM 82.0 °F 86.3 °F 71.1 °F 69% 30.04 in 10.0 mi North 11.5 mph - N/A   Overcast
12:53 PM 80.1 °F 82.9 °F 69.1 °F 69% 30.05 in 10.0 mi North 15.0 mph - N/A   Overcast
1:53 PM 80.1 °F 82.9 °F 69.1 °F 69% 30.04 in 10.0 mi North 11.5 mph - N/A   Overcast
2:00 PM 81.0 °F 84.1 °F 69.1 °F 67% 30.07 in 10.0 mi North 12.7 mph - N/A   Overcast
3:29 PM 82.9 °F 86.5 °F 69.1 °F 63% 30.05 in 10.0 mi North 16.1 mph - N/A   Overcast
3:36 PM 84.0 °F 87.8 °F 69.1 °F 61% 30.05 in 10.0 mi North 12.7 mph 23.0 mph N/A   Overcast
3:44 PM 84.9 °F 88.8 °F 69.1 °F 59% 30.04 in 10.0 mi North 15.0 mph 23.0 mph N/A   Mostly Cloudy
3:53 PM 84.9 °F 88.8 °F 69.1 °F 59% 30.01 in 10.0 mi North 15.0 mph 23.0 mph N/A   Mostly Cloudy
4:53 PM 87.1 °F 89.9 °F 66.9 °F 51% 30.01 in 10.0 mi North 18.4 mph 24.2 mph N/A   Mostly Cloudy
5:53 PM 86.0 °F 86.3 °F 62.1 °F 44% 30.01 in 10.0 mi NNE 13.8 mph 26.5 mph N/A   Clear
6:53 PM 84.9 °F 85.4 °F 62.1 °F 46% 30.02 in 10.0 mi NNE 17.3 mph 25.3 mph N/A   Clear
7:53 PM 82.0 °F 83.0 °F 62.1 °F 51% 30.04 in 10.0 mi North 15.0 mph - N/A   Clear
8:53 PM 78.1 °F - 61.0 °F 56% 30.05 in 10.0 mi North 9.2 mph - N/A   Clear
9:53 PM 77.0 °F - 62.1 °F 60% 30.06 in 10.0 mi NNE 5.8 mph - N/A   Partly Cloudy
10:53 PM 75.0 °F - 62.1 °F 64% 30.08 in 10.0 mi NNE 5.8 mph - N/A   Clear
11:53 PM 73.0 °F - 63.0 °F 71% 30.10 in 10.0 mi North 9.2 mph - N/A   Partly Cloudy